COSMOS 2491 DEB, 45130

Orbit data source: Space-Track

COSMOS 2491 DEB, 45130 is space debris in LEO originally from a launch on Wed, 25 Dec 2013 UTC launched from the Plesetsk Missile And Space Complex (PKMTR). Debris objects in space refer to the collection of defunct objects orbiting the Earth. Examples of debris include non-operational satellites, rocket bodies, and fragments generated from explosions, collisions, or faulty payload assembly.

Loading next visibility...
Identifier
45130, 2013-076AC
Orbit
LEO
Last TLE update
4 days ago
Origin
Manufacturer
TsNIIKhM
Mission
Spacecraft
Bus & Motor
Unknown
Mass
Unknown
Launch date (UTC)
2013-12-25 (11 years ago)
Launch vehicle
Unknown
Launch site
Plesetsk Missile And Space Complex (PKMTR)
Object type
Payload
Rocket body
Debris
Shape & HBR
Unknown
Radar Cross Section
Small (<0.1 m²)

Expand to show TLE details & history

TLE from 4 days ago
0 COSMOS 2491 DEB
1 45130U 13076AC  25124.91624955  .00003204  00000-0  15022-1 0  9995
2 45130  82.4399  11.5903 0192484 345.1025  14.4446 12.69644509242835
Epoch: 2025-05-04T21:59Z
Definitive object data (Epoch: 2025-05-04T21:59:23.961Z)
Latitude
-0.00003°
Longitude
178.70316°
Altitude
1,241.612 km
Speed
7.301 km/s
True Right ascension
00h 46m 21s
True Declination
0° 00' 00"
Sunlit
Object was in daylight at TLE epoch
Visualization TLE readout
Latitude
15.89884°
Longitude
-6.38504°
Altitude
1,532.829 km
Speed
7.033 km/s
Apparent Right ascension
09h 52m 43s
Apparent Declination
-14° 43' 34"
Sunlit
Object is in full shadow
Visualization observer readout
Local Sidereal Time
16:55:02
Azimuth
268.261° W
Elevation
-21.244°
Doppler factor
1
Orbital elements
Apogee altitude
1,530.048 km
Perigee altitude
1,231.357 km
Semi-major axis
7,758.84 km
Eccentricity
0.0192484
Inclination
82.4399°
RAAN
11.5903°
Arg. of periapsis
345.1025°
True anomaly
15.0079°
Mean anomaly
14.4446°
Eccentric anomaly
14.72492°
Mean motion
3.17576 °/min
BSTAR
0.015022
Orbital period
113.36 mins
Loading maneuver chart data...
Loading SW <> Apogee altitude chart data...
Loading historical data...
Loading historical data...
Loading historical data...
Loading historical data...
Loading historical data...
Loading historical data...
Loading historical data...

COSMOS 2491 DEB Visibility forecast

Observer location: undefined°, undefined°

Span
Click to sort rows by Start time (UTC) header in descending order
Start Az.
Max El. time (UTC)
Max El. Az.
Max El.
End time (UTC)
End Az.
13 mins2025-05-09 15:33:49.434Z142.251° SSE2025-05-09 15:39:49.434Z87.049° E28.179°2025-05-09 15:46:49.434Z25.966° NE
13 mins2025-05-09 17:27:49.434Z215.617° SW2025-05-09 17:33:49.434Z280.938° WNW36.36°2025-05-09 17:40:49.434Z354.766° N
6 mins2025-05-10 01:33:49.434Z41.234° NE2025-05-10 01:36:49.434Z62.69° ENE13.295°2025-05-10 01:39:49.434Z83.299° E
16 mins2025-05-10 03:24:49.434Z358.465° N2025-05-10 03:32:49.434Z96.476° ESE42.855°2025-05-10 03:40:49.434Z162.406° S
12 mins2025-05-10 05:20:49.434Z321.003° NNW2025-05-10 05:25:49.434Z280.068° WNW23.628°2025-05-10 05:32:49.434Z227.639° WSW
|